Change the Weather History Date:

Wednesday, February 29, 2012

  Actual Average Record
Temperature  
Mean Temperature 70 °F -  
Max Temperature 84 °F 67 °F 84 °F (2012)
Min Temperature 55 °F 49 °F 35 °F (2008)
Cooling Degree Days 4    
Growing Degree Days 20 (Base 50)    
Moisture  
Dew Point 61 °F    
Average Humidity 84    
Maximum Humidity 100    
Minimum Humidity 43    
Precipitation  
Precipitation 0.00 in - - ()
Sea Level Pressure  
Sea Level Pressure 30.19 in    
Wind  
Wind Speed 2 mph (SW)    
Max Wind Speed 13 mph    
Max Gust Speed 20 mph    
Visibility 5 miles    
Events Fog    
Averages and records for this station are not official NWS values.
T = Trace of Precipitation, MM = Missing Value Source: NWS Daily Summary

Daily Weather History Graph

Daily Weather History Graph

Search for Another Location

Airport or City:

Trip Planner

Search our weather history database for the weather conditions in past years. The results will help you decide how hot, cold, wet, or windy it might be!

Date:

Astronomy

Feb. 29, 2012 Rise Set
Actual Time 6:52 AM EST 6:24 PM EST
Civil Twilight 6:28 AM EST 6:48 PM EST
Nautical Twilight 6:00 AM EST 7:16 PM EST
Astronomical Twilight 5:33 AM EST 7:44 PM EST
Moon 11:14 AM EST (2/29) 12:38 AM EST (2/29)
Length of Visible Light 12h 20m
Length of Day
11h 31m
Waxing Crescent, 47% of the Moon is Illuminated
Feb 29
Waxing Crescent
Feb 29
First Quarter
Mar 8
Full
Mar 14
Last Quarter
Mar 22
New

Hourly Weather History & Observations

Time (EST) Temp. Heat Index Dew Point Humidity Pressure Visibility Wind Dir Wind Speed Gust Speed Precip Events Conditions
12:53 AM 63.0 °F - 60.1 °F 90% 30.25 in 10.0 mi Calm Calm - N/A   Overcast
1:53 AM 63.0 °F - 60.1 °F 90% 30.24 in 8.0 mi Calm Calm - N/A   Overcast
2:07 AM 62.6 °F - 60.8 °F 94% 30.24 in 8.0 mi Calm Calm - N/A   Overcast
2:26 AM 62.6 °F - 60.8 °F 94% 30.23 in 2.0 mi Calm Calm - N/A   Overcast
2:32 AM 62.6 °F - 60.8 °F 94% 30.23 in 0.8 mi Calm Calm - N/A   Overcast
2:39 AM 62.6 °F - 60.8 °F 94% 30.22 in 0.5 mi Calm Calm - N/A Fog Fog
2:49 AM 62.6 °F - 60.8 °F 94% 30.22 in 0.2 mi Calm Calm - N/A Fog Fog
2:53 AM 62.1 °F - 60.1 °F 93% 30.22 in 0.2 mi Calm Calm - N/A Fog Fog
3:18 AM 60.8 °F - 59.0 °F 94% 30.21 in 0.5 mi Calm Calm - N/A Fog Fog
3:42 AM 59.0 °F - 57.2 °F 94% 30.20 in 0.2 mi Calm Calm - N/A Fog Fog
3:53 AM 59.0 °F - 57.0 °F 93% 30.20 in 0.2 mi Calm Calm - N/A Fog Fog
4:44 AM 57.2 °F - 55.4 °F 94% 30.20 in 0.5 mi Calm Calm - N/A Fog Fog
4:53 AM 57.0 °F - 55.9 °F 96% 30.20 in 0.2 mi Calm Calm - N/A Fog Fog
5:10 AM 55.4 °F - 55.4 °F 100% 30.20 in 0.2 mi Calm Calm - N/A Fog Fog
5:20 AM 57.2 °F - 55.4 °F 94% 30.21 in 0.5 mi Calm Calm - N/A Fog Fog
5:25 AM 57.2 °F - 55.4 °F 94% 30.21 in 1.0 mi Calm Calm - N/A   Mist
5:28 AM 57.2 °F - 55.4 °F 94% 30.21 in 3.0 mi Calm Calm - N/A   Overcast
5:53 AM 59.0 °F - 57.0 °F 93% 30.22 in 5.0 mi Calm Calm - N/A   Overcast
6:00 AM 59.0 °F - 57.2 °F 94% 30.22 in 2.0 mi Calm Calm - N/A   Overcast
6:24 AM 59.0 °F - 57.2 °F 94% 30.21 in 0.2 mi Calm Calm - N/A Fog Fog
6:53 AM 59.0 °F - 57.9 °F 96% 30.22 in 0.2 mi Calm Calm - N/A Fog Fog
7:53 AM 62.1 °F - 61.0 °F 96% 30.25 in 0.2 mi SW 5.8 mph - N/A Fog Fog
8:34 AM 62.6 °F - 62.6 °F 100% 30.25 in 0.5 mi SW 4.6 mph - N/A Fog Fog
8:40 AM 64.4 °F - 62.6 °F 94% 30.25 in 1.0 mi SW 4.6 mph - N/A   Overcast
8:53 AM 64.0 °F - 63.0 °F 96% 30.25 in 2.0 mi SW 6.9 mph - N/A   Overcast
9:05 AM 64.4 °F - 64.4 °F 100% 30.24 in 3.0 mi SW 5.8 mph - N/A   Overcast
9:22 AM 66.2 °F - 64.4 °F 94% 30.24 in 3.0 mi SW 8.1 mph - N/A   Overcast
9:46 AM 69.8 °F - 64.4 °F 83% 30.24 in 10.0 mi South 6.9 mph - N/A   Scattered Clouds
9:53 AM 70.0 °F - 64.0 °F 81% 30.24 in 7.0 mi SSW 8.1 mph - N/A   Scattered Clouds
10:53 AM 75.0 °F - 64.0 °F 69% 30.23 in 10.0 mi SW 12.7 mph 19.6 mph N/A   Partly Cloudy
11:53 AM 78.1 °F - 64.0 °F 62% 30.21 in 10.0 mi SSW 11.5 mph - N/A   Scattered Clouds
12:53 PM 80.1 °F 81.2 °F 62.1 °F 54% 30.17 in 10.0 mi West 6.9 mph - N/A   Partly Cloudy
1:53 PM 82.0 °F 82.7 °F 61.0 °F 49% 30.14 in 10.0 mi SSW 8.1 mph - N/A   Mostly Cloudy
2:53 PM 82.9 °F 83.2 °F 60.1 °F 46% 30.10 in 10.0 mi WSW 8.1 mph - N/A   Scattered Clouds
3:53 PM 84.0 °F 83.8 °F 59.0 °F 43% 30.08 in 10.0 mi SSW 11.5 mph - N/A   Partly Cloudy
4:53 PM 84.0 °F 83.8 °F 59.0 °F 43% 30.07 in 10.0 mi WSW 6.9 mph - N/A   Mostly Cloudy
5:53 PM 78.1 °F - 64.9 °F 64% 30.08 in 10.0 mi SSE 4.6 mph - N/A   Mostly Cloudy
6:53 PM 73.9 °F - 64.9 °F 73% 30.09 in 10.0 mi SE 5.8 mph - N/A   Scattered Clouds
7:53 PM 73.0 °F - 66.0 °F 79% 30.08 in 10.0 mi SSE 5.8 mph - N/A   Mostly Cloudy
8:53 PM 71.1 °F - 64.9 °F 81% 30.09 in 10.0 mi Calm Calm - N/A   Clear
9:53 PM 73.0 °F - 64.0 °F 73% 30.09 in 10.0 mi SW 8.1 mph - N/A   Clear
10:53 PM 72.0 °F - 63.0 °F 73% 30.09 in 10.0 mi West 5.8 mph - N/A   Clear
11:53 PM 71.1 °F - 64.0 °F 78% 30.08 in 10.0 mi West 6.9 mph - N/A   Clear